カタログに戻る

SKYMED 4

運用中科学SSO
NORAD 37216·PAYLOAD·🇮🇹 Italy

打ち上げ Nov 6, 2010 から Vandenberg Space Force Base

Loading…

次のパス (今後24時間)

TLE

最新Source: Space-Track

元期: Sep 14, 2026, 15:00 UTC

1 37216U 10060A   26257.62519964  .00000537  00000-0  74059-4 0  9994
2 37216  97.8907  79.9505 0001429  82.0348 278.1028 14.82153906857813

AllMySatでSKYMED 4をリアルタイム追跡

Download on the App Store